Regional Weather Roundup
Issued by NWS

Home | Current Version | Previous Version | Graphics & Text | Print | Product List | Glossary On
Versions: 1 2 3 4 5 6 7 8 9 10 11 12 13 14 15 16 17 18 19 20 21 22 23 24 25 26 27 28 29 30 31 32 33 34 35 36 37 38 39 40 41 42 43 44 45 46 47 48 49 50
000
ASUS45 KBOU 220907
RWRCO

WEATHER ROUNDUP FOR COLORADO
NATIONAL WEATHER SERVICE DENVER/BOULDER CO
200 AM MST MON DEC 22 2014

NOTE: "FAIR" INDICATES FEW OR NO CLOUDS BELOW 12000 FEET WITH NO
SIGNIFICANT WEATHER AND/OR OBSTRUCTIONS TO VISIBILITY.

COZ001>005-013-030-031-221000-
...NORTHWEST COLORADO...

CITY           SKY/WX    TMP DP  RH WIND       PRES   REMARKS
CRAIG          CLOUDY    36  27  69 W13G23    29.85R
HAYDEN         CLOUDY    34  23  64 W23G29    29.82S WCI  22
MEEKER         CLOUDY    37  27  67 NW16G22   29.88R
MOUNT WERNER   NOT AVBL
STEAMBOAT SPGS CLOUDY    32  23  71 W13       29.81R WCI  22
WALDEN         MOCLDY    23  14  68 W16       29.75R WCI  10
$$

COZ006>008-011-221000-
...WEST CENTRAL VALLEYS...

CITY           SKY/WX    TMP DP  RH WIND       PRES   REMARKS
GRAND JUNCTION CLOUDY    32  31  96 CALM      29.88S
MONTROSE       CLOUDY    30  29  96 SE7       29.91S WCI  23
EAGLE          MOCLDY    34  32  93 W3        29.85R
RIFLE          CLOUDY    35  32  88 W14       29.86R WCI  26
DELTA          CLOUDY    34  32  93 CALM      29.89R FOG
NUCLA          CLOUDY    36  32  87 E10       29.97S
$$

COZ017>023-064>068-221000-
...SOUTHWEST COLORADO...

CITY           SKY/WX    TMP DP  RH WIND       PRES   REMARKS
DURANGO        MOCLDY    41  31  67 W23G35    29.85F
CORTEZ         CLEAR     31  28  89 N6        29.96R WCI  25
PAGOSA SPRINGS LGT SNOW  31  31 100 CALM      29.88S
TELLURIDE      CLOUDY    32  31  96 W22G58    29.95S FOG     WCI  20
WOLF CREEK PAS LGT SNOW  19  19 100 MISG      29.89R
$$

COZ009-010-012-014-032>034-037-058>063-221000-
...CENTRAL COLORADO...

CITY           SKY/WX    TMP DP  RH WIND       PRES   REMARKS
ASPEN          FLURRIES  31  28  89 N12       29.81S WCI  22
BUENA VISTA    CLOUDY    31  27  86 NW21G29   29.73R WCI  19
COPPER MTN     CLOUDY    19  14  79 W38G46    29.73S WCI  -1
BERTHOUD PASS  HVY SNOW   9   3  78 MISG      29.61F VSB<1/4
COTTONWOOD PAS SNOW      30  21  69 N12G31    29.70F VSB 1/2 WCI  21
GUNNISON       CLOUDY    34  28  80 N5        29.82R VSB 1   WCI  30
KREMMLING      CLOUDY    32  21  64 NW13G18   29.81S WCI  22
LEADVILLE      LGT SNOW  23  18  81 NW22G39   29.75R WCI   8
SALIDA         CLOUDY    34  33  96 NW3       29.82R
SUNLIGHT       CLOUDY   N/A N/A N/A SW6       29.84F
WILKERSON PASS LGT SNOW  18  14  86 N15G30    29.74R WCI   3
$$

COZ069>075-221000-
...SAN LUIS VALLEY/SANGRE DE CRISTO MOUNTAINS...

CITY           SKY/WX    TMP DP  RH WIND       PRES   REMARKS
ALAMOSA        CLOUDY    34  25  69 NW8       29.74F WCI  27
LA VETA PASS   CLOUDY    27  21  80 SW8G30    29.75R WCI  18
SAGUACHE       LGT SNOW  34  32  93 N20G30    29.76R VSB 3/4 WCI  22
$$

COZ035-036-038>040-221000-
...NORTHERN COLORADO FRONT RANGE...

CITY           SKY/WX    TMP DP  RH WIND       PRES   REMARKS
DENVER INTL AP CLOUDY    33  31  92 W10       29.72R WCI  25
DMNS CITY PARK   N/A     34  32  95 S3        29.72R
AURORA         MOCLDY    33  32  99 W7        29.73R WCI  26
FRONT RANGE AP CLOUDY    34  32  93 W9        29.72R WCI  26
ERIE MUNI ARPT   N/A     34  32  93 SE3       29.72R
BOULDER MUN AP CLOUDY    36  32  87 CALM      29.70R
CENTENNIAL     LGT SNOW  32  31  96 W7        29.72R FOG     WCI  26
BROOMFIELD     CLOUDY    34  32  93 W5        29.71R WCI  30
FORT COLLINS   PTCLDY    34  21  60 N14       29.72R WCI  24
LONGMONT       MOCLDY    35  30  82 CALM      29.73R
$$

COZ041-046-047-076>085-087-088-221000-
...PIKES PEAK/PALMER DIVIDE AND SOUTHERN FOOTHILLS...

CITY           SKY/WX    TMP DP  RH WIND       PRES   REMARKS
COLO. SPRINGS  LGT SNOW  33  31  92 NW8       29.74R FOG     WCI  26
A. F. ACADEMY  FLURRIES  31  31  99 N6        29.72S WCI  25
ELLICOTT       NOT AVBL
FALCON         CLOUDY    30  27  90 N15G25    29.72R WCI  19
FORT CARSON    LGT SNOW  33  32  97 N14       29.72R FOG     WCI  23
LIMON          CLOUDY    31  29  92 W13       29.70R WCI  21
MONUMENT HILL  LGT SNOW  28  27  93 N9        29.71S WCI  20
TRINIDAD       RAIN      37  34  89 NE9       29.70R
$$

COZ042>045-048>051-090-091-221000-
...NORTHEAST COLORADO...

CITY           SKY/WX    TMP DP  RH WIND       PRES   REMARKS
GREELEY ARPT   PTCLDY    36  23  60 NW18      29.69R
AKRON          MOCLDY    31  29  92 W13       29.66R WCI  21
BURLINGTON     MIX PCPN  38  32  79 NW22G33   29.65R
WRAY           CLOUDY    38  31  77 NW13      29.62R
STERLING       MOCLDY    36  32  87 W9        29.65R
HOLYOKE        CLOUDY    39  32  75 NW18      29.61R
FORT MORGAN    MOCLDY    28  24  82 NW9       29.68R WCI  20
$$

COZ086-089-092>099-221000-
...SOUTHEAST COLORADO...

CITY           SKY/WX    TMP DP  RH WIND       PRES   REMARKS
PUEBLO         CLOUDY    38  31  76 N20G25    29.71R
LA JUNTA       CLOUDY    38  32  79 W9        29.69S
LAMAR          CLOUDY    39  33  79 N14       29.63R
SPRINGFIELD      N/A     39  36  89 NW13      29.65S
$$


USA.gov is the U.S. government's official web portal to all federal, state and local government web resources and services.